Miscellaneous Local Product
Issued by NWS Hastings, NE

Home | Current Version | Previous Version | Text Only | Print | Product List | Glossary Off
Versions: 1 2 3 4 5 6 7 8 9 10 11 12 13 14 15 16 17 18 19 20 21 22 23 24 25 26 27 28 29 30 31 32 33 34 35 36 37 38 39 40 41 42 43 44 45 46 47 48 49 50

258
AXUS43 KGID 080802
MISGRI

GID CWA HOURLY WEATHER ROUNDUP
NATIONAL WEATHER SERVICE HASTINGS NE
200 AM CST MON FEB 08 2016

NOTE: "FAIR" INDICATES FEW OR NO CLOUDS BELOW 12,000 FEET WITH NO
SIGNIFICANT WEATHER AND/OR OBSTRUCTIONS TO VISIBILITY.

...SOUTH CENTRAL NEBRASKA...

CITY           SKY/WX    TMP DP  RH WIND       PRES   REMARKS
GRAND ISLAND   CLOUDY    32  19  58 NW28G36   30.11F WCI  18
HASTINGS       CLOUDY    33  18  53 NW26G38   30.11F WCI  20
ORD            PTCLDY    31  17  56 NW36G47   30.10S WCI  15
YORK           CLOUDY    30  19  64 NW25G31   30.06F WCI  16
AURORA         MOCLDY    31  19  59 NW26G32   30.09F WCI  17
LEXINGTON      CLEAR     28  15  58 NW20      30.19F WCI  15
HOLDREGE       CLEAR     29  16  58 NW22G30   30.17F WCI  15
HEBRON         CLEAR     30  20  65 NW12      30.12F WCI  21

...NEBRASKA PANHANDLE...

CITY           SKY/WX    TMP DP  RH WIND       PRES   REMARKS
CHADRON        CLEAR     25  12  58 W18       30.34S WCI  11
ALLIANCE       CLEAR     18   9  68 W20       30.29S WCI   2
SCOTTSBLUFF    CLOUDY    24  12  60 NW15      30.37F WCI  11
SIDNEY         CLOUDY    23  11  60 NW20      30.32F WCI   8

...WESTERN AND NORTH CENTRAL NEBRASKA...

CITY           SKY/WX    TMP DP  RH WIND       PRES   REMARKS
VALENTINE      CLEAR     29  16  58 NW26G35   30.19F WCI  14
AINSWORTH      CLEAR     30  17  56 NW29G39   30.15S WCI  15
ONEILL         MOCLDY    32  18  57 NW37G48   30.08F WCI  16
BROKEN BOW     CLEAR     30  16  56 NW28G39   30.15F WCI  15
IMPERIAL       CLEAR     27  13  55 NW21G32   30.28F WCI  13
NORTH PLATTE   CLEAR     28  12  51 NW24G31   30.22F WCI  14
MCCOOK         CLEAR     25  14  63 NW18      30.25F WCI  11

...EASTERN NEBRASKA...

CITY           SKY/WX    TMP DP  RH WIND       PRES   REMARKS
NORFOLK        FLURRIES  31  24  75 N28G36    30.00R WCI  17
SO SIOUX CITY  CLOUDY    29  19  66 N29G39    29.96F WCI  14
TEKAMAH        CLOUDY    29  21  72 NW29G41   29.98F WCI  14
COLUMBUS       CLOUDY    32  16  51 NW22G31   30.03F WCI  19
ALBION         PTCLDY    32  18  57 NW35G43   30.01F WCI  16
OMAHA EPPLEY   CLOUDY    31  22  69 NW31G46   29.97F WCI  16
OFFUTT AFB     MOCLDY    32  19  59 NW31G46   29.97F WCI  17
MILLARD        MOCLDY    32  21  63 NW23G33   29.99F WCI  19
LINCOLN        CLOUDY    34  19  54 NW20G28   30.04F WCI  23
NEBRASKA CITY  CLOUDY    32  23  69 NW22G29   30.00F WCI  19
BEATRICE       CLOUDY    33  21  62 NW18G25   30.06F WCI  21
FALLS CITY     CLOUDY    34  23  64 NW18G31   30.01F WCI  23

...NORTHERN KANSAS...

CITY           SKY/WX    TMP DP  RH WIND       PRES   REMARKS
GOODLAND       CLEAR     26  11  52 NW24      30.31F WCI  11
HILL CITY      CLEAR     28  16  60 W16       30.26F WCI  16
NORTON         SUNNY     25  14  63 W20       30.22F WCI  11
PHILLIPSBURG   CLEAR     32  18  55 NW15G23   30.22F WCI  22
SMITH CENTER   CLEAR     28  19  69 W16       30.19F WCI  17
BELOIT         PTCLDY    30  19  64 W10       30.18F WCI  21
HAYS           CLEAR     30  12  47 NW20      30.25F WCI  18
RUSSELL        CLEAR     32  18  56 NW17      30.22F WCI  21
CONCORDIA      CLEAR     31  19  61 NW15      30.14F WCI  20
SALINA         CLEAR     34  19  54 NW17      30.19F WCI  23
TOPEKA         CLOUDY    38  17  42 NW22G38   30.06F WCI  27



USA.gov is the U.S. government's official web portal to all federal, state and local government web resources and services.